Location: Unspecified
(43.8044°N, 11.0278°E)
Time: 12:48:27
(UTC+01:00)

CZ-3 Stage 3 - Visible Passes

Search period start: 27 February 2017 00:00
Search period end: 09 March 2017 00:00
Orbit: 409 x 34792 km, 30.6° (Epoch: 26 February)

Date Brightness Start Highest point End Pass type
(mag) Time Alt. Az. Time Alt. Az. Time Alt. Az.
27 Feb 8.7 19:13:28 10° ENE 23:24:40 23° E 01:14:19 10° E visible
28 Feb 8.9 03:40:59 10° W 05:36:02 29° W 10:12:52 10° WNW visible
28 Feb 8.0 23:36:52 10° SW 02:12:24 69° SW 08:55:01 10° S visible
01 Mar 7.4 20:00:16 10° S 02:34:05 63° SE 05:18:30 10° SE visible
02 Mar 8.7 19:03:18 10° ENE 23:15:21 23° E 01:04:49 10° E visible
03 Mar 8.9 03:31:44 10° W 05:26:17 29° W 10:00:26 10° WNW visible
03 Mar 8.0 23:27:55 10° WSW 02:01:14 69° SW 08:45:43 10° S visible
04 Mar 7.4 19:51:08 10° S 02:23:13 63° SE 05:09:27 10° SE visible
05 Mar 8.6 18:53:25 10° ENE 23:06:03 23° E 00:55:16 10° E visible
06 Mar 8.9 03:22:28 10° W 05:16:29 29° W 09:47:58 10° WNW visible
06 Mar 8.0 23:18:56 10° WSW 01:50:02 69° SW 08:36:22 10° S visible
07 Mar 7.4 19:41:59 10° S 02:12:20 63° SE 05:00:21 10° SE visible
